Theta_e
312 310 309 307 306 305 304 305 305 305 305 305 306 305 305 306 307 308 308 308 309 309 312 311 311 310 308 298 297 306 308 307 305 304 301 300 298 297 293 295 295 293 294 295 296 295 295
311 310 308 307 305 305 304 304 304 304 304 304 305 305 305 306 307 308 307 308 309 309 311 311 310 309 303 291 302 302 302 302 302 302 300 300 298 299 295 293 292 293 293 293 293 293 293
311 310 308 307 305 304 304 304 303 304 304 304 304 304 305 305 306 307 307 308 309 310 311 310 310 307 297 294 301 302 302 300 301 301 299 300 300 297 296 292 294 292 289 291 292 293 292
311 310 308 307 305 305 305 303 303 303 303 304 303 304 304 305 306 306 306 308 309 311 311 311 310 305 295 304 303 300 302 301 303 303 302 301 301 298 295 294 291 288 288 286 290 292 292
311 310 309 307 306 306 304 303 302 302 302 303 303 303 304 305 305 305 306 307 308 310 311 310 306 301 292 304 297 299 301 298 300 302 302 299 298 293 292 289 287 287 284 285 287 291 291
311 310 309 307 306 305 303 302 302 302 302 303 303 304 304 305 304 305 305 307 307 309 310 309 305 294 295 292 296 298 301 301 298 297 296 295 293 290 289 287 281 282 283 284 284 289 290
312 311 309 307 306 305 304 303 304 303 302 302 302 303 304 304 304 304 301 302 296 295 299 292 293 292 294 299 299 297 300 298 297 294 288 292 287 285 287 288 286 286 284 284 287 289 287
312 311 309 307 306 305 304 304 303 302 302 302 302 303 303 304 303 301 298 294 292 293 288 294 294 295 298 299 291 295 300 292 291 287 290 289 285 288 288 286 285 285 284 284 287 288 286
312 310 309 307 306 306 304 304 304 301 301 301 301 302 303 302 300 296 294 292 295 296 288 291 295 295 296 296 291 292 296 293 289 286 287 285 286 289 287 286 284 285 283 284 283 286 288
313 310 308 308 307 306 305 304 302 301 300 300 301 302 303 299 294 292 292 293 297 297 284 283 290 292 294 295 290 295 296 293 289 285 286 286 288 286 286 285 286 281 287 286 284 283 279
313 312 310 309 310 308 305 304 303 301 301 300 302 302 302 296 293 290 291 295 298 292 279 286 288 297 294 290 291 291 295 293 286 286 286 284 285 285 284 285 288 284 287 285 284 283 281
313 312 311 310 310 308 306 305 303 302 301 300 301 301 299 292 292 291 294 296 292 286 277 282 288 286 287 288 288 290 290 293 290 287 286 286 288 287 287 287 288 287 284 282 283 281 276
314 312 311 310 309 308 307 306 304 302 302 301 300 301 296 291 288 292 296 291 285 280 279 280 283 285 285 284 285 286 285 285 283 279 279 282 283 286 287 284 286 286 283 277 274 273 274
314 313 311 311 309 308 307 306 304 303 302 301 301 299 294 291 292 295 291 287 277 276 276 282 282 283 282 283 283 283 283 282 283 282 280 278 277 282 286 286 283 283 283 277 270 271 275
314 313 311 311 310 309 307 305 303 303 302 301 298 292 292 291 294 293 288 280 280 279 280 280 280 279 279 280 281 282 282 281 283 284 280 278 277 283 284 285 285 281 279 284 276 269 272
314 313 311 311 309 308 308 306 304 303 302 301 291 289 289 291 293 291 286 281 280 280 282 282 281 278 278 276 278 279 279 282 282 283 284 281 276 281 283 284 285 283 284 277 277 270 269
313 313 311 311 309 308 308 306 304 303 302 298 290 285 289 292 292 288 281 280 279 283 283 281 281 275 278 276 278 278 278 281 282 281 284 282 279 278 280 280 280 280 280 280 279 277 272
313 313 311 310 309 308 308 307 305 303 302 295 287 282 288 290 283 274 279 278 282 281 282 281 281 278 278 277 277 277 278 279 282 282 279 282 279 275 278 279 279 278 279 280 275 274 275
313 312 311 310 309 308 308 307 306 303 301 290 285 283 287 287 278 277 276 278 281 279 280 279 279 280 278 276 276 276 278 280 281 281 279 280 276 272 274 274 276 276 278 277 273 275 274
313 312 311 311 310 308 308 307 306 305 300 291 285 278 281 285 281 279 276 277 277 280 279 280 279 280 277 273 273 272 276 278 280 280 282 281 275 274 272 273 273 272 273 276 274 272 274
308 310 311 311 310 308 308 307 306 305 300 291 284 281 280 277 277 278 278 277 275 275 278 279 277 278 277 271 270 272 273 276 278 279 278 278 271 269 271 272 272 272 272 273 271 273 270
307 308 311 311 310 309 308 307 306 305 300 290 280 278 277 274 277 279 279 276 276 275 276 275 275 278 276 274 278 271 273 272 276 275 276 274 272 269 267 271 271 268 271 271 271 272 270
305 306 307 308 310 308 308 307 306 305 299 288 282 281 283 278 276 278 277 277 276 277 277 278 278 277 275 277 278 277 278 278 277 276 274 273 271 268 267 267 268 266 270 271 272 273 272
304 305 306 308 310 309 308 307 306 304 300 287 285 283 281 274 276 277 277 278 277 277 277 277 278 277 278 280 280 278 276 275 274 274 277 271 271 270 267 265 261 271 273 273 272 274 274
302 304 305 307 309 310 308 306 306 305 301 289 285 284 280 274 277 276 277 277 278 279 276 277 278 280 282 279 274 270 269 269 268 270 272 274 273 268 265 264 268 271 274 271 270 271 275
299 302 301 304 307 309 307 306 305 305 302 290 286 287 283 277 277 280 277 277 276 276 275 275 279 281 279 276 273 268 267 265 266 266 269 271 273 270 264 263 261 271 273 274 274 267 276
298 298 299 301 303 307 308 306 305 305 302 293 288 287 285 280 279 280 278 277 279 276 275 273 276 276 278 273 270 268 268 263 266 263 264 266 268 266 267 265 268 273 274 275 265 269 276
297 298 298 298 300 304 307 307 305 305 303 293 287 287 287 281 279 281 281 277 277 278 276 274 276 275 273 272 271 269 267 267 265 268 267 267 265 265 267 265 263 275 272 269 275 277 277
297 298 298 296 297 298 302 305 305 305 301 295 285 287 288 284 280 283 283 283 282 281 277 273 275 273 277 273 270 269 267 264 265 266 269 266 271 269 270 270 274 274 276 276 275 275 276
Wind_Speed
15 11 9 8 7 6 3 5 4 5 6 8 9 10 10 11 11 11 12 11 10 10 10 7 5 4 4 3 4 4 6 6 4 2 4 2 3 2 2 1 1 4 3 2 5 9 10
13 12 10 8 7 7 6 5 3 3 5 6 8 10 10 11 12 13 11 10 8 8 9 5 2 2 2 3 3 5 5 2 6 4 4 4 2 2 3 1 2 2 7 9 5 6 6
13 12 10 8 7 6 6 6 4 4 4 6 9 9 10 11 13 13 11 10 7 5 6 3 3 3 2 5 1 3 4 2 2 2 3 2 1 1 2 3 2 2 8 7 2 0 1
16 12 10 9 7 4 5 3 3 3 3 5 6 8 9 11 13 13 11 10 6 7 4 7 3 3 4 3 2 5 2 3 4 5 5 2 3 5 1 2 1 2 4 5 3 1 2
16 13 12 8 8 8 4 3 2 2 3 4 7 7 8 10 12 11 12 8 4 2 3 2 1 2 4 3 1 3 3 3 3 4 6 4 3 3 2 3 3 2 5 6 4 1 3
18 16 13 10 9 6 4 3 3 1 1 5 6 8 10 12 11 10 10 5 2 1 1 1 2 2 1 1 1 2 2 3 3 2 3 2 2 4 4 5 5 3 4 4 7 2 4
20 16 15 12 13 10 7 5 5 4 1 3 5 8 10 11 11 9 3 3 3 3 3 4 3 3 1 1 1 3 1 2 1 2 3 2 5 7 4 5 3 3 6 10 8 4 6
20 18 16 15 13 11 8 8 5 1 2 4 5 7 10 11 9 5 3 2 3 3 4 2 1 1 2 2 3 1 1 2 1 2 3 3 7 1 1 3 6 6 9 11 10 6 4
22 20 18 18 15 13 10 10 7 4 3 1 3 7 10 11 4 4 5 4 1 2 1 3 2 1 0 2 2 3 1 2 1 4 5 6 3 5 4 5 7 9 12 7 8 5 8
23 22 19 19 19 17 14 11 7 5 4 2 3 5 9 10 2 1 3 1 1 2 2 3 1 1 1 1 2 1 1 1 2 2 3 6 2 5 6 9 9 8 9 9 7 5 6
24 22 22 21 19 19 16 14 13 10 5 3 4 4 7 8 5 3 3 1 1 3 4 4 3 3 1 2 4 2 2 2 4 4 3 2 5 5 7 6 11 2 3 3 4 7 7
26 24 23 22 19 20 18 17 14 12 7 5 2 3 4 3 2 3 3 2 2 2 6 4 0 3 3 1 1 1 1 3 2 2 4 7 1 4 3 2 10 8 4 3 2 2 7
27 26 24 23 22 21 19 18 16 13 10 7 3 3 4 2 3 3 3 2 3 3 3 4 4 4 3 3 3 2 3 4 4 3 3 3 6 2 4 4 3 8 6 3 5 5 7
27 26 26 25 24 23 21 19 17 13 11 7 6 6 4 3 2 4 2 3 3 1 5 2 2 3 4 2 2 2 2 4 5 2 2 4 4 7 6 9 5 14 9 5 7 4 3
29 28 27 26 25 23 22 22 19 16 13 10 9 2 2 3 3 1 1 2 7 6 6 10 3 3 3 2 1 4 6 4 2 9 6 4 5 1 0 2 3 4 10 7 5 2 5
30 29 28 27 25 24 24 22 19 19 16 15 4 3 2 3 1 1 3 4 3 3 6 3 7 2 6 5 5 6 6 2 2 2 1 1 6 1 2 2 2 5 3 3 3 6 10
32 31 29 28 27 26 25 23 22 21 19 14 3 4 2 2 1 1 3 5 4 3 3 6 6 5 3 5 5 5 2 2 1 3 1 1 3 1 1 6 5 5 6 6 4 4 8
34 33 31 31 30 28 28 26 24 24 22 9 4 3 2 2 3 1 4 6 4 5 2 2 2 3 6 6 5 4 4 0 2 5 4 2 2 6 6 2 2 4 5 9 9 9 5
35 34 33 33 32 31 31 29 27 27 24 6 5 3 2 2 4 4 1 2 4 5 5 5 5 1 2 4 3 3 3 2 3 6 6 6 4 4 4 3 2 7 5 3 2 1 15
34 36 35 35 36 34 33 32 30 29 23 5 5 5 1 2 1 3 5 4 5 1 3 3 4 4 4 2 3 3 5 4 2 4 5 5 5 7 13 11 0 5 6 7 4 6 12
7 14 34 37 37 36 36 34 32 31 26 5 1 4 3 7 5 4 3 4 6 6 2 3 2 5 7 5 3 5 3 2 3 2 4 4 6 5 6 10 8 12 13 13 11 10 11
10 9 16 37 38 37 36 35 35 34 28 3 6 5 1 3 4 13 7 7 9 4 8 5 4 11 8 7 7 8 7 4 5 3 6 3 4 3 6 8 8 12 18 16 19 19 16
17 16 15 12 37 38 38 37 36 37 24 4 3 2 2 7 7 8 7 8 10 10 4 1 8 7 8 8 4 2 3 2 2 7 8 5 5 4 9 4 7 12 14 22 17 15 16
18 17 19 20 19 36 38 38 37 39 26 4 4 5 3 3 5 7 6 7 10 10 7 4 8 4 3 12 12 8 5 4 0 5 3 6 5 3 5 2 13 4 3 5 15 18 15
11 17 17 17 20 37 40 39 39 39 31 4 5 4 5 4 4 5 9 6 9 5 4 5 2 3 13 4 4 3 3 4 3 1 4 4 6 3 5 6 14 21 10 10 11 11 13
16 12 6 17 16 19 36 39 41 39 35 6 4 3 4 8 8 7 7 6 6 5 4 3 4 8 4 3 2 4 4 1 4 3 3 4 5 7 5 7 10 6 4 4 2 12 12
17 15 9 11 19 21 32 39 40 39 36 13 4 4 5 4 3 5 6 8 7 5 5 3 6 2 3 2 3 4 4 2 4 5 5 4 6 15 15 12 10 7 5 3 8 10 5
16 17 14 14 10 20 31 38 40 39 37 15 5 3 5 3 2 4 6 7 5 4 7 6 6 2 2 4 4 4 5 5 3 3 5 9 8 6 7 9 15 6 5 10 10 3 6
19 20 14 13 15 11 7 23 45 43 38 20 7 1 1 6 3 2 5 7 2 4 8 2 2 5 6 4 2 3 3 3 2 6 4 6 6 5 9 7 2 2 8 8 6 5 7
Wind_Direction
151 162 159 156 151 136 119 86 62 63 36 20 21 18 12 5 355 352 350 344 339 335 338 336 346 341 289 110 82 352 342 358 20 55 46 73 93 108 141 100 174 242 301 274 275 286 279
156 166 166 166 163 157 141 108 36 36 39 25 17 9 9 357 350 349 347 337 342 332 339 332 347 345 247 108 329 341 337 12 34 48 57 34 78 84 94 79 280 2 282 279 281 286 261
165 170 174 177 178 177 188 139 79 34 28 28 16 12 1 355 349 347 341 339 342 342 0 59 70 329 15 96 327 354 42 26 6 90 101 60 115 162 153 138 9 311 295 297 172 281 18
172 179 181 184 191 210 165 127 97 85 42 35 3 10 357 353 350 343 335 334 329 344 67 98 63 305 69 320 319 70 16 53 49 50 81 31 58 91 1 130 144 260 263 275 129 294 124
176 178 185 195 201 196 200 155 165 87 38 12 7 356 355 352 351 342 332 327 304 327 93 47 114 341 113 319 57 32 18 93 61 53 54 66 61 64 168 215 219 198 269 257 269 108 321
175 185 181 188 202 200 177 201 225 233 46 10 2 350 353 349 347 343 339 318 42 121 85 173 108 158 175 130 16 41 50 83 98 105 113 63 90 188 168 206 254 188 233 239 267 105 294
179 176 178 186 196 184 196 209 263 183 133 343 352 348 349 350 344 359 19 136 162 137 44 49 74 64 98 319 245 68 25 116 112 95 178 54 233 222 189 216 238 230 251 263 268 284 285
183 177 176 182 199 189 205 198 202 216 325 322 3 341 350 349 347 30 80 92 59 14 104 30 67 107 246 272 125 97 168 185 190 160 146 187 242 202 208 174 210 228 256 265 275 262 262
181 178 179 188 190 192 199 210 192 151 282 290 344 351 348 349 54 50 69 98 29 260 78 50 41 72 320 252 137 143 200 137 128 170 204 238 100 111 180 196 209 228 241 255 272 309 251
184 183 186 200 193 192 189 180 178 184 189 229 306 4 358 347 116 87 64 75 190 235 117 120 125 81 224 161 121 22 44 161 155 232 200 259 119 227 218 240 217 252 229 244 264 266 274
186 191 187 198 199 187 182 196 177 196 217 222 298 34 35 32 124 96 105 155 197 250 296 113 133 357 352 237 120 104 357 145 219 180 197 93 184 195 217 230 191 243 135 209 247 246 296
187 192 191 193 190 187 186 192 193 179 200 213 144 49 84 89 85 89 132 152 228 49 251 151 210 163 171 55 104 89 85 53 38 209 239 262 352 250 250 179 202 138 119 82 75 261 253
193 188 192 192 186 187 188 196 188 183 186 219 155 65 82 120 102 138 150 172 61 202 22 179 181 188 188 153 155 184 165 187 218 191 225 237 210 212 209 195 156 189 178 231 227 198 247
196 192 190 194 187 187 188 185 182 186 182 167 121 108 63 56 103 149 177 93 180 42 208 120 125 117 201 153 151 138 150 237 205 177 246 265 247 188 167 229 225 203 210 227 253 238 333
194 194 192 192 189 186 179 182 181 176 177 157 126 81 86 33 116 144 129 128 206 197 143 154 102 166 215 205 216 180 218 234 218 190 224 206 254 119 277 336 257 165 217 270 274 130 270
195 193 193 189 188 186 180 183 178 172 166 150 118 123 96 345 38 156 89 232 195 139 135 180 194 211 190 192 187 203 195 157 157 195 339 64 281 51 74 235 200 254 136 175 210 247 243
197 194 192 189 187 188 183 181 179 171 161 149 124 140 70 28 232 61 189 220 192 192 158 187 194 142 213 181 205 200 164 104 90 120 131 191 254 132 215 204 230 188 216 229 281 249 266
199 195 191 189 187 188 181 179 178 170 153 149 153 136 18 275 112 2 190 190 157 156 149 118 109 107 182 161 175 224 216 66 161 150 168 180 217 255 251 107 330 296 280 247 238 230 239
200 195 192 190 188 189 180 179 178 172 155 141 123 101 46 291 168 205 214 173 194 148 183 166 165 156 132 160 212 206 181 114 177 187 174 182 202 282 243 169 178 234 209 188 158 306 247
200 196 193 191 188 187 183 179 178 174 165 110 135 128 65 226 5 163 148 199 175 131 134 134 127 111 115 102 31 183 215 185 199 209 171 175 197 227 257 291 98 226 204 217 208 246 263
230 211 195 192 190 186 183 180 177 173 170 110 221 176 165 177 211 174 201 116 135 169 191 174 141 202 160 145 171 219 218 211 210 222 153 203 237 202 264 261 253 265 254 229 213 225 233
198 217 203 196 187 186 185 180 175 170 167 117 147 151 120 118 140 168 189 198 168 179 160 200 210 191 177 164 191 191 155 218 203 148 173 183 247 173 271 254 260 268 252 247 242 243 248
208 214 214 232 195 185 183 181 177 169 162 150 131 10 119 150 138 147 200 185 193 148 205 168 194 142 194 228 159 74 106 109 147 168 182 180 183 175 264 12 316 268 249 232 231 232 228
219 216 216 214 213 191 183 180 176 173 180 121 147 124 124 154 174 187 164 163 177 191 146 142 157 144 133 115 100 71 49 26 128 226 208 169 174 190 281 327 262 298 37 277 246 247 226
256 222 221 222 226 203 184 176 175 177 180 103 134 137 133 133 196 146 149 128 110 117 92 129 105 26 147 88 92 57 351 353 300 287 212 205 181 216 248 226 294 296 252 217 210 264 235
247 223 284 224 229 202 176 176 177 180 178 120 129 119 117 125 224 135 136 164 147 127 97 67 35 129 68 84 120 175 228 184 260 280 1 228 254 222 167 237 261 301 307 299 214 263 225
225 244 237 281 228 222 193 183 181 180 173 156 138 173 101 118 196 157 153 168 137 115 111 137 156 158 346 127 140 178 222 315 241 210 179 165 207 222 231 240 259 261 205 184 242 285 196
227 231 217 259 297 236 212 190 175 180 174 155 127 149 140 103 182 207 130 133 128 162 149 149 126 165 112 170 188 186 209 200 227 233 202 192 178 211 235 252 262 174 129 221 257 303 268
228 227 218 203 269 292 249 204 182 180 166 149 124 160 61 81 120 342 90 77 16 160 124 177 67 153 152 134 210 115 184 183 233 265 189 262 214 259 221 237 334 240 271 358 346 333 325